| time (UTC) | temp F | wind direction | speed MPH | gust MPH | rain 1hr in | rain 24hr in | rain mn in | humidity % | barometer mb |
| 20260507211210 | 64 | 23 | 2.0 | 2.0 | 0.00 | 0.01 | 0.01 | 75 | 1009.2 |
| 20260507210708 | 65 | 331 | 4.0 | 6.0 | 0.00 | 0.01 | 0.01 | 74 | 1009.2 |
| 20260507210204 | 64 | 8 | 2.0 | 3.0 | 0.00 | 0.01 | 0.01 | 75 | 1009.4 |
| 20260507205701 | 64 | 14 | 1.0 | 2.0 | 0.00 | 0.01 | 0.01 | 75 | 1009.4 |
| 20260507205158 | 64 | 331 | 2.0 | 2.0 | 0.00 | 0.01 | 0.01 | 75 | 1009.2 |
| 20260507204654 | 64 | 342 | 2.0 | 3.0 | 0.00 | 0.01 | 0.01 | 73 | 1009.4 |
| 20260507204152 | 64 | 337 | 3.0 | 4.0 | 0.00 | 0.01 | 0.01 | 74 | 1009.2 |
| 20260507203649 | 64 | 344 | 2.0 | 6.0 | 0.00 | 0.01 | 0.01 | 73 | 1009.5 |
| 20260507203146 | 63 | 285 | 1.0 | 1.0 | 0.00 | 0.01 | 0.01 | 76 | 1009.5 |
| 20260507202642 | 63 | 337 | 2.0 | 2.0 | 0.00 | 0.01 | 0.01 | 73 | 1009.5 |
| 20260507202138 | 65 | 33 | 2.0 | 2.0 | 0.00 | 0.01 | 0.01 | 71 | 1009.6 |
| 20260507201633 | 64 | 349 | 2.0 | 3.0 | 0.00 | 0.01 | 0.01 | 70 | 1009.8 |
| 20260507201131 | 63 | 332 | 1.0 | 1.0 | 0.00 | 0.01 | 0.01 | 72 | 1009.7 |
| 20260507200627 | 63 | 9 | 0.0 | 1.0 | 0.00 | 0.01 | 0.01 | 69 | 1009.7 |
| 20260507200123 | 63 | 30 | 0.0 | 0.0 | 0.00 | 0.01 | 0.01 | 69 | 1009.8 |
| 20260507195620 | 63 | 340 | 1.0 | 2.0 | 0.00 | 0.01 | 0.01 | 69 | 1009.7 |
| 20260507195117 | 62 | 23 | 1.0 | 1.0 | 0.00 | 0.01 | 0.01 | 71 | 1009.7 |
| 20260507194614 | 64 | 107 | 3.0 | 4.0 | 0.00 | 0.01 | 0.01 | 67 | 1009.8 |
| 20260507194109 | 64 | 0 | 0.0 | 0.0 | 0.00 | 0.01 | 0.01 | 69 | 1010.1 |
| 20260507193607 | 63 | 352 | 0.0 | 0.0 | 0.00 | 0.01 | 0.01 | 68 | 1010.2 |
| 20260507193103 | 63 | 50 | 1.0 | 1.0 | 0.00 | 0.01 | 0.01 | 68 | 1010.3 |
| 20260507192600 | 62 | 347 | 4.0 | 6.0 | 0.00 | 0.01 | 0.01 | 69 | 1010.3 |
| 20260507192057 | 63 | 17 | 4.0 | 6.0 | 0.00 | 0.01 | 0.01 | 69 | 1010.5 |
| 20260507191552 | 65 | 47 | 2.0 | 2.0 | 0.00 | 0.01 | 0.01 | 66 | 1010.1 |
| 20260507191049 | 64 | 86 | 2.0 | 3.0 | 0.00 | 0.01 | 0.01 | 66 | 1010.4 |
| 20260507190546 | 64 | 126 | 1.0 | 2.0 | 0.00 | 0.01 | 0.01 | 64 | 1010.6 |
| 20260507190045 | 63 | 8 | 0.0 | 1.0 | 0.00 | 0.01 | 0.01 | 69 | 1010.7 |
| 20260507185543 | 63 | 305 | 2.0 | 2.0 | 0.00 | 0.01 | 0.01 | 67 | 1010.6 |
| 20260507185039 | 63 | 64 | 3.0 | 3.0 | 0.00 | 0.01 | 0.01 | 69 | 1010.6 |
| 20260507184538 | 63 | 332 | 4.0 | 4.0 | 0.00 | 0.01 | 0.01 | 68 | 1010.9 |
| 20260507184035 | 64 | 66 | 2.0 | 2.0 | 0.00 | 0.01 | 0.01 | 68 | 1010.8 |
| 20260507183531 | 63 | 313 | 1.0 | 2.0 | 0.00 | 0.01 | 0.01 | 70 | 1010.6 |
| 20260507183028 | 62 | 316 | 1.0 | 2.0 | 0.00 | 0.01 | 0.01 | 70 | 1010.9 |
| 20260507182524 | 62 | 24 | 1.0 | 2.0 | 0.00 | 0.01 | 0.01 | 69 | 1011.0 |
| 20260507182020 | 62 | 95 | 2.0 | 4.0 | 0.00 | 0.01 | 0.01 | 71 | 1010.8 |
| 20260507181518 | 64 | 129 | 2.0 | 2.0 | 0.00 | 0.01 | 0.01 | 72 | 1011.2 |
| 20260507181014 | 62 | 328 | 2.0 | 2.0 | 0.00 | 0.01 | 0.01 | 72 | 1011.0 |
| 20260507180510 | 61 | 332 | 3.0 | 3.0 | 0.00 | 0.01 | 0.01 | 72 | 1011.2 |
| 20260507180007 | 60 | 10 | 4.0 | 4.0 | 0.00 | 0.01 | 0.01 | 73 | 1011.4 |
| 20260507175503 | 60 | 108 | 2.0 | 4.0 | 0.00 | 0.01 | 0.01 | 76 | 1011.5 |
| 20260507175001 | 60 | 57 | 1.0 | 2.0 | 0.00 | 0.01 | 0.01 | 75 | 1011.5 |
| 20260507174458 | 59 | 19 | 2.0 | 3.0 | 0.00 | 0.01 | 0.01 | 76 | 1011.3 |
| 20260507173956 | 59 | 44 | 3.0 | 3.0 | 0.00 | 0.01 | 0.01 | 75 | 1011.5 |
| 20260507173452 | 61 | 335 | 3.0 | 3.0 | 0.00 | 0.01 | 0.01 | 74 | 1011.8 |
| 20260507172949 | 60 | 63 | 2.0 | 2.0 | 0.00 | 0.01 | 0.01 | 72 | 1011.7 |
| 20260507172445 | 60 | 14 | 3.0 | 3.0 | 0.00 | 0.01 | 0.01 | 74 | 1011.8 |
| 20260507171942 | 60 | 293 | 3.0 | 3.0 | 0.00 | 0.01 | 0.01 | 76 | 1011.7 |
| 20260507171438 | 61 | 6 | 1.0 | 1.0 | 0.00 | 0.01 | 0.01 | 73 | 1011.9 |
| 20260507170936 | 60 | 20 | 2.0 | 3.0 | 0.00 | 0.01 | 0.01 | 75 | 1012.0 |
| 20260507170432 | 59 | 21 | 0.0 | 0.0 | 0.00 | 0.01 | 0.01 | 76 | 1012.0 |
| 20260507165928 | 59 | 358 | 1.0 | 1.0 | 0.00 | 0.01 | 0.01 | 76 | 1012.4 |
| 20260507165424 | 60 | 350 | 1.0 | 1.0 | 0.00 | 0.01 | 0.01 | 79 | 1012.5 |
| 20260507164920 | 59 | 344 | 0.0 | 1.0 | 0.00 | 0.01 | 0.01 | 76 | 1012.3 |
| 20260507164418 | 59 | 350 | 0.0 | 1.0 | 0.00 | 0.01 | 0.01 | 75 | 1012.2 |
| 20260507163915 | 59 | 261 | 0.0 | 1.0 | 0.00 | 0.01 | 0.01 | 74 | 1012.4 |
| 20260507163412 | 59 | 249 | 1.0 | 1.0 | 0.00 | 0.01 | 0.01 | 76 | 1012.4 |
| 20260507162909 | 59 | 288 | 2.0 | 3.0 | 0.00 | 0.01 | 0.01 | 76 | 1012.6 |
| 20260507162404 | 58 | 311 | 0.0 | 1.0 | 0.00 | 0.01 | 0.01 | 77 | 1012.6 |
| 20260507161902 | 59 | 195 | 2.0 | 3.0 | 0.00 | 0.01 | 0.01 | 76 | 1012.8 |
| 20260507161357 | 57 | 14 | 0.0 | 0.0 | 0.00 | 0.01 | 0.01 | 79 | 1012.9 |
| 20260507160854 | 58 | 313 | 2.0 | 2.0 | 0.00 | 0.01 | 0.01 | 76 | 1013.1 |
| 20260507160350 | 56 | 338 | 0.0 | 0.0 | 0.00 | 0.01 | 0.01 | 80 | 1013.1 |
| 20260507155846 | 56 | 347 | 0.0 | 1.0 | 0.00 | 0.01 | 0.01 | 80 | 1013.4 |
| 20260507155342 | 55 | 8 | 0.0 | 0.0 | 0.00 | 0.01 | 0.01 | 81 | 1013.4 |
| 20260507154839 | 56 | 158 | 1.0 | 1.0 | 0.00 | 0.01 | 0.01 | 79 | 1013.3 |
| 20260507154337 | 56 | 199 | 1.0 | 1.0 | 0.00 | 0.01 | 0.01 | 80 | 1013.2 |
| 20260507153833 | 56 | 215 | 3.0 | 3.0 | 0.00 | 0.01 | 0.01 | 81 | 1013.3 |
| 20260507153330 | 55 | 226 | 1.0 | 1.0 | 0.00 | 0.01 | 0.01 | 83 | 1013.7 |
| 20260507152827 | 55 | 202 | 1.0 | 2.0 | 0.00 | 0.01 | 0.01 | 82 | 1013.4 |
| 20260507152323 | 55 | 332 | 1.0 | 2.0 | 0.00 | 0.01 | 0.01 | 84 | 1013.3 |
| 20260507151819 | 55 | 184 | 1.0 | 1.0 | 0.00 | 0.01 | 0.01 | 83 | 1013.3 |
| 20260507151315 | 55 | 289 | 1.0 | 1.0 | 0.00 | 0.01 | 0.01 | 84 | 1013.5 |
| 20260507150812 | 55 | 319 | 1.0 | 1.0 | 0.00 | 0.01 | 0.01 | 85 | 1013.3 |
| 20260507150309 | 54 | 144 | 2.0 | 3.0 | 0.00 | 0.01 | 0.01 | 85 | 1013.4 |
| 20260507145805 | 54 | 170 | 1.0 | 1.0 | 0.00 | 0.01 | 0.01 | 87 | 1013.6 |
| 20260507145302 | 54 | 52 | 0.0 | 0.0 | 0.00 | 0.01 | 0.01 | 89 | 1013.6 |
| 20260507144759 | 53 | 219 | 1.0 | 1.0 | 0.00 | 0.01 | 0.01 | 89 | 1013.4 |
| 20260507144256 | 53 | 342 | 1.0 | 2.0 | 0.00 | 0.01 | 0.01 | 88 | 1013.7 |
| 20260507143752 | 53 | 155 | 0.0 | 1.0 | 0.00 | 0.01 | 0.01 | 89 | 1013.6 |
| 20260507143250 | 53 | 212 | 1.0 | 2.0 | 0.00 | 0.01 | 0.01 | 89 | 1013.9 |
| 20260507142746 | 53 | 73 | 1.0 | 1.0 | 0.00 | 0.01 | 0.01 | 90 | 1013.8 |
| 20260507142242 | 53 | 151 | 2.0 | 3.0 | 0.00 | 0.01 | 0.01 | 90 | 1014.0 |
| 20260507141739 | 53 | 112 | 2.0 | 2.0 | 0.00 | 0.01 | 0.01 | 91 | 1014.0 |
| 20260507141236 | 53 | 157 | 2.0 | 3.0 | 0.00 | 0.01 | 0.01 | 91 | 1014.0 |
| 20260507140732 | 53 | 254 | 1.0 | 1.0 | 0.00 | 0.01 | 0.01 | 91 | 1014.1 |
| 20260507140230 | 53 | 179 | 1.0 | 2.0 | 0.00 | 0.01 | 0.01 | 92 | 1014.0 |
| 20260507135727 | 53 | 193 | 1.0 | 1.0 | 0.00 | 0.01 | 0.01 | 92 | 1014.2 |
| 20260507135224 | 53 | 181 | 3.0 | 4.0 | 0.00 | 0.01 | 0.01 | 93 | 1014.1 |
| 20260507134720 | 53 | 176 | 2.0 | 2.0 | 0.00 | 0.01 | 0.01 | 94 | 1013.9 |
| 20260507134216 | 53 | 226 | 1.0 | 1.0 | 0.00 | 0.01 | 0.01 | 95 | 1014.0 |
| 20260507133712 | 53 | 218 | 3.0 | 3.0 | 0.00 | 0.01 | 0.01 | 95 | 1014.1 |
| 20260507133209 | 53 | 156 | 2.0 | 3.0 | 0.00 | 0.01 | 0.01 | 95 | 1014.1 |
| 20260507132707 | 53 | 136 | 2.0 | 3.0 | 0.00 | 0.01 | 0.01 | 94 | 1014.1 |
| 20260507132203 | 53 | 228 | 2.0 | 2.0 | 0.00 | 0.01 | 0.01 | 95 | 1014.0 |
| 20260507131700 | 53 | 200 | 1.0 | 2.0 | 0.00 | 0.01 | 0.01 | 95 | 1014.1 |
| 20260507131158 | 53 | 203 | 2.0 | 2.0 | 0.00 | 0.01 | 0.01 | 94 | 1014.2 |
| 20260507130654 | 53 | 188 | 3.0 | 3.0 | 0.00 | 0.01 | 0.01 | 94 | 1014.2 |
| 20260507130152 | 53 | 184 | 4.0 | 4.0 | 0.00 | 0.01 | 0.01 | 94 | 1014.2 |
| 20260507125650 | 53 | 193 | 2.0 | 3.0 | 0.00 | 0.01 | 0.01 | 95 | 1014.1 |
| 20260507125148 | 53 | 152 | 1.0 | 1.0 | 0.00 | 0.01 | 0.01 | 95 | 1014.2 |
| 20260507124643 | 53 | 163 | 2.0 | 2.0 | 0.00 | 0.01 | 0.01 | 95 | 1014.2 |
| 20260507124142 | 53 | 226 | 3.0 | 3.0 | 0.00 | 0.01 | 0.01 | 96 | 1014.0 |
| 20260507123640 | 53 | 180 | 2.0 | 3.0 | 0.00 | 0.01 | 0.01 | 96 | 1014.0 |
| 20260507123136 | 53 | 184 | 2.0 | 3.0 | 0.00 | 0.01 | 0.01 | 96 | 1014.3 |
| 20260507122632 | 53 | 127 | 1.0 | 1.0 | 0.00 | 0.01 | 0.01 | 96 | 1014.3 |
| 20260507122128 | 53 | 126 | 2.0 | 2.0 | 0.00 | 0.01 | 0.01 | 96 | 1014.0 |
| 20260507121624 | 53 | 129 | 2.0 | 2.0 | 0.00 | 0.01 | 0.01 | 96 | 1013.9 |
| 20260507121120 | 53 | 232 | 2.0 | 2.0 | 0.00 | 0.01 | 0.01 | 96 | 1013.6 |
| 20260507120616 | 53 | 104 | 2.0 | 2.0 | 0.00 | 0.01 | 0.01 | 96 | 1013.8 |
| 20260507120113 | 53 | 68 | 0.0 | 0.0 | 0.00 | 0.01 | 0.01 | 96 | 1013.7 |
| 20260507115609 | 53 | 213 | 1.0 | 1.0 | 0.00 | 0.01 | 0.01 | 96 | 1013.7 |
| 20260507115105 | 53 | 59 | 0.0 | 0.0 | 0.00 | 0.01 | 0.01 | 97 | 1013.9 |
| 20260507114601 | 53 | 196 | 2.0 | 2.0 | 0.00 | 0.01 | 0.01 | 97 | 1013.7 |
| 20260507114058 | 53 | 352 | 0.0 | 1.0 | 0.00 | 0.01 | 0.01 | 98 | 1013.6 |
| 20260507113555 | 53 | 237 | 0.0 | 0.0 | 0.00 | 0.01 | 0.01 | 98 | 1013.6 |
| 20260507113053 | 53 | 190 | 2.0 | 2.0 | 0.00 | 0.01 | 0.01 | 97 | 1013.6 |
| 20260507112550 | 53 | 186 | 2.0 | 2.0 | 0.00 | 0.01 | 0.01 | 98 | 1013.5 |
| 20260507112047 | 53 | 293 | 1.0 | 1.0 | 0.00 | 0.01 | 0.01 | 98 | 1013.5 |
| 20260507111544 | 53 | 212 | 2.0 | 3.0 | 0.00 | 0.01 | 0.01 | 98 | 1013.6 |
| 20260507111041 | 53 | 162 | 1.0 | 2.0 | 0.00 | 0.01 | 0.01 | 98 | 1013.5 |
| 20260507110537 | 53 | 180 | 2.0 | 3.0 | 0.00 | 0.01 | 0.01 | 98 | 1013.5 |
| 20260507110033 | 52 | 293 | 0.0 | 0.0 | 0.00 | 0.01 | 0.01 | 99 | 1013.2 |
| 20260507105531 | 52 | 162 | 1.0 | 1.0 | 0.00 | 0.01 | 0.01 | 99 | 1013.4 |
| 20260507105026 | 53 | 214 | 1.0 | 2.0 | 0.00 | 0.01 | 0.01 | 99 | 1013.3 |
| 20260507104524 | 53 | 354 | 0.0 | 0.0 | 0.00 | 0.01 | 0.01 | 99 | 1013.2 |
| 20260507104020 | 53 | 28 | 0.0 | 0.0 | 0.00 | 0.01 | 0.01 | 99 | 1013.0 |
| 20260507103517 | 52 | 153 | 1.0 | 1.0 | 0.00 | 0.01 | 0.01 | 99 | 1012.9 |
| 20260507103013 | 53 | 215 | 1.0 | 1.0 | 0.00 | 0.01 | 0.01 | 99 | 1013.1 |
| 20260507102510 | 52 | 35 | 0.0 | 0.0 | 0.00 | 0.01 | 0.01 | 99 | 1013.3 |
| 20260507102007 | 53 | 2 | 0.0 | 0.0 | 0.00 | 0.01 | 0.01 | 99 | 1013.4 |
| 20260507101501 | 53 | 292 | 1.0 | 1.0 | 0.00 | 0.01 | 0.01 | 99 | 1013.2 |
| 20260507100958 | 52 | 124 | 1.0 | 2.0 | 0.00 | 0.01 | 0.01 | 99 | 1013.5 |
| 20260507100455 | 53 | 8 | 0.0 | 0.0 | 0.00 | 0.01 | 0.01 | 99 | 1013.2 |
| 20260507095954 | 53 | 1 | 0.0 | 0.0 | 0.00 | 0.01 | 0.01 | 99 | 1013.2 |
| 20260507095451 | 53 | 347 | 0.0 | 0.0 | 0.00 | 0.01 | 0.01 | 99 | 1013.2 |
| 20260507094948 | 53 | 328 | 0.0 | 0.0 | 0.00 | 0.01 | 0.01 | 99 | 1013.3 |
| 20260507094444 | 53 | 137 | 1.0 | 1.0 | 0.00 | 0.01 | 0.01 | 99 | 1013.2 |
| 20260507093941 | 53 | 47 | 0.0 | 0.0 | 0.00 | 0.01 | 0.01 | 99 | 1013.2 |
| 20260507093438 | 53 | 351 | 0.0 | 1.0 | 0.00 | 0.01 | 0.01 | 99 | 1012.8 |
| 20260507092937 | 53 | 82 | 1.0 | 1.0 | 0.00 | 0.01 | 0.01 | 99 | 1012.6 |
| 20260507092433 | 53 | 230 | 1.0 | 1.0 | 0.00 | 0.01 | 0.01 | 99 | 1012.9 |
| 20260507091930 | 53 | 284 | 0.0 | 1.0 | 0.00 | 0.01 | 0.01 | 99 | 1012.9 |
| 20260507091426 | 53 | 145 | 0.0 | 1.0 | 0.00 | 0.01 | 0.01 | 99 | 1013.0 |
| 20260507090922 | 53 | 60 | 1.0 | 1.0 | 0.00 | 0.01 | 0.01 | 99 | 1012.9 |
| 20260507090418 | 53 | 16 | 0.0 | 0.0 | 0.00 | 0.01 | 0.01 | 99 | 1012.9 |
| 20260507085915 | 53 | 13 | 0.0 | 0.0 | 0.00 | 0.01 | 0.01 | 99 | 1013.1 |
| 20260507085412 | 53 | 80 | 0.0 | 0.0 | 0.00 | 0.01 | 0.01 | 99 | 1012.8 |
| 20260507084909 | 53 | 279 | 1.0 | 1.0 | 0.00 | 0.01 | 0.01 | 99 | 1012.8 |
| 20260507084406 | 53 | 212 | 1.0 | 1.0 | 0.00 | 0.01 | 0.01 | 99 | 1012.6 |
| 20260507083903 | 53 | 218 | 1.0 | 2.0 | 0.00 | 0.01 | 0.01 | 99 | 1012.8 |
| 20260507083359 | 53 | 246 | 2.0 | 2.0 | 0.00 | 0.01 | 0.01 | 99 | 1012.2 |
| 20260507082856 | 53 | 185 | 2.0 | 3.0 | 0.00 | 0.01 | 0.01 | 99 | 1012.6 |
| 20260507082351 | 53 | 277 | 1.0 | 1.0 | 0.00 | 0.01 | 0.01 | 99 | 1012.6 |
| 20260507081849 | 53 | 78 | 1.0 | 2.0 | 0.00 | 0.01 | 0.01 | 99 | 1012.8 |
| 20260507081345 | 53 | 249 | 2.0 | 3.0 | 0.00 | 0.01 | 0.01 | 99 | 1012.9 |
| 20260507080842 | 53 | 195 | 2.0 | 3.0 | 0.00 | 0.01 | 0.01 | 99 | 1012.8 |
| 20260507080338 | 53 | 214 | 1.0 | 2.0 | 0.00 | 0.01 | 0.01 | 99 | 1013.0 |
| 20260507075833 | 54 | 24 | 0.0 | 1.0 | 0.00 | 0.01 | 0.01 | 99 | 1013.0 |
| 20260507075330 | 54 | 216 | 2.0 | 2.0 | 0.00 | 0.01 | 0.01 | 99 | 1012.8 |
| 20260507074826 | 54 | 196 | 3.0 | 4.0 | 0.00 | 0.01 | 0.01 | 99 | 1013.1 |
| 20260507074324 | 54 | 132 | 1.0 | 1.0 | 0.00 | 0.01 | 0.01 | 99 | 1012.9 |
| 20260507073821 | 54 | 72 | 1.0 | 2.0 | 0.00 | 0.01 | 0.01 | 99 | 1012.5 |
| 20260507073318 | 54 | 137 | 4.0 | 4.0 | 0.00 | 0.01 | 0.01 | 99 | 1012.8 |
| 20260507072815 | 54 | 132 | 2.0 | 3.0 | 0.00 | 0.01 | 0.01 | 99 | 1012.4 |
| 20260507072312 | 54 | 203 | 2.0 | 3.0 | 0.00 | 0.01 | 0.01 | 99 | 1012.1 |
| 20260507071809 | 54 | 126 | 2.0 | 2.0 | 0.00 | 0.01 | 0.01 | 99 | 1012.0 |
| 20260507071306 | 55 | 246 | 2.0 | 2.0 | 0.00 | 0.01 | 0.01 | 99 | 1012.0 |
| 20260507070802 | 55 | 217 | 4.0 | 6.0 | 0.00 | 0.01 | 0.01 | 99 | 1012.3 |
| 20260507070300 | 55 | 149 | 2.0 | 3.0 | 0.00 | 0.01 | 0.01 | 99 | 1012.2 |
| 20260507065756 | 55 | 181 | 4.0 | 4.0 | 0.00 | 0.01 | 0.01 | 99 | 1012.2 |
| 20260507065253 | 55 | 101 | 4.0 | 6.0 | 0.00 | 0.01 | 0.01 | 99 | 1012.3 |
| 20260507064750 | 55 | 131 | 3.0 | 4.0 | 0.00 | 0.01 | 0.01 | 99 | 1011.9 |
| 20260507064249 | 55 | 195 | 3.0 | 4.0 | 0.00 | 0.01 | 0.01 | 99 | 1012.1 |
| 20260507063746 | 55 | 138 | 3.0 | 4.0 | 0.00 | 0.01 | 0.01 | 99 | 1012.3 |
| 20260507063243 | 55 | 188 | 4.0 | 6.0 | 0.00 | 0.01 | 0.01 | 99 | 1012.3 |
| 20260507062740 | 55 | 118 | 2.0 | 3.0 | 0.00 | 0.01 | 0.01 | 99 | 1012.3 |
| 20260507062237 | 55 | 187 | 2.0 | 3.0 | 0.00 | 0.01 | 0.01 | 99 | 1012.2 |
| 20260507061735 | 55 | 228 | 5.0 | 7.0 | 0.00 | 0.01 | 0.01 | 99 | 1011.9 |
| 20260507061233 | 55 | 166 | 5.0 | 8.0 | 0.00 | 0.01 | 0.01 | 99 | 1012.0 |
| 20260507060731 | 55 | 199 | 3.0 | 4.0 | 0.00 | 0.01 | 0.01 | 99 | 1011.9 |
| 20260507060227 | 55 | 257 | 2.0 | 2.0 | 0.00 | 0.01 | 0.01 | 99 | 1012.3 |
| 20260507055723 | 56 | 217 | 4.0 | 4.0 | 0.00 | 0.01 | 0.01 | 99 | 1012.3 |
| 20260507055219 | 56 | 87 | 3.0 | 4.0 | 0.00 | 0.01 | 0.01 | 99 | 1012.5 |
| 20260507054715 | 56 | 225 | 2.0 | 3.0 | 0.00 | 0.01 | 0.01 | 99 | 1012.3 |
| 20260507054212 | 56 | 176 | 4.0 | 4.0 | 0.00 | 0.01 | 0.01 | 99 | 1012.3 |
| 20260507053710 | 56 | 303 | 4.0 | 6.0 | 0.00 | 0.01 | 0.01 | 99 | 1012.6 |
| 20260507053207 | 56 | 197 | 5.0 | 7.0 | 0.00 | 0.01 | 0.01 | 99 | 1012.3 |
| 20260507052706 | 56 | 222 | 5.0 | 6.0 | 0.00 | 0.01 | 0.01 | 99 | 1011.8 |
| 20260507052202 | 56 | 159 | 2.0 | 3.0 | 0.00 | 0.01 | 0.01 | 99 | 1011.9 |
| 20260507051700 | 56 | 225 | 4.0 | 8.0 | 0.00 | 0.01 | 0.01 | 99 | 1012.2 |
| 20260507051156 | 56 | 152 | 4.0 | 6.0 | 0.00 | 0.01 | 0.01 | 99 | 1011.8 |
| 20260507050653 | 56 | 197 | 8.0 | 11.0 | 0.00 | 0.01 | 0.01 | 99 | 1011.9 |
| 20260507050150 | 56 | 184 | 2.0 | 2.0 | 0.00 | 0.01 | 0.01 | 99 | 1011.7 |
| 20260507045646 | 57 | 42 | 2.0 | 3.0 | 0.00 | 0.01 | 0.01 | 99 | 1011.3 |
| 20260507045143 | 57 | 198 | 2.0 | 2.0 | 0.00 | 0.01 | 0.01 | 99 | 1011.5 |
| 20260507044640 | 57 | 130 | 4.0 | 4.0 | 0.00 | 0.01 | 0.01 | 99 | 1011.3 |
| 20260507044137 | 58 | 128 | 2.0 | 2.0 | 0.00 | 0.01 | 0.01 | 99 | 1011.1 |
| 20260507043633 | 57 | 359 | 0.0 | 1.0 | 0.00 | 0.01 | 0.01 | 99 | 1010.7 |
| 20260507043130 | 57 | 354 | 0.0 | 0.0 | 0.00 | 0.01 | 0.01 | 99 | 1011.1 |
| 20260507042626 | 58 | 0 | 1.0 | 1.0 | 0.00 | 0.01 | 0.01 | 99 | 1011.4 |
| 20260507042121 | 58 | 7 | 0.0 | 1.0 | 0.00 | 0.01 | 0.01 | 99 | 1011.5 |
| 20260507041619 | 58 | 192 | 1.0 | 2.0 | 0.00 | 0.01 | 0.01 | 99 | 1011.4 |
| 20260507041115 | 58 | 143 | 4.0 | 6.0 | 0.07 | 0.01 | 0.01 | 99 | 1011.9 |
| 20260507040613 | 58 | 172 | 2.0 | 4.0 | 0.12 | 0.01 | 0.01 | 99 | 1011.8 |
| 20260507040109 | 59 | 172 | 3.0 | 3.0 | 0.40 | 0.00 | 0.00 | 99 | 1011.7 |
| 20260507035605 | 59 | 150 | 4.0 | 7.0 | 0.61 | 0.26 | 0.26 | 99 | 1012.2 |
| 20260507035101 | 59 | 161 | 2.0 | 4.0 | 0.26 | 0.20 | 0.20 | 99 | 1012.6 |
| 20260507034558 | 60 | 341 | 4.0 | 7.0 | 0.00 | 0.16 | 0.16 | 99 | 1012.1 |
| 20260507034056 | 60 | 204 | 2.0 | 3.0 | 0.00 | 0.16 | 0.16 | 99 | 1012.0 |
| 20260507033554 | 60 | 15 | 1.0 | 2.0 | 0.00 | 0.16 | 0.16 | 99 | 1011.9 |
| 20260507033050 | 61 | 159 | 3.0 | 4.0 | 0.00 | 0.16 | 0.16 | 99 | 1011.8 |
| 20260507032548 | 61 | 209 | 1.0 | 1.0 | 0.00 | 0.16 | 0.16 | 99 | 1011.8 |
| 20260507032044 | 61 | 181 | 2.0 | 2.0 | 0.05 | 0.16 | 0.16 | 99 | 1011.7 |
| 20260507031540 | 62 | 102 | 2.0 | 2.0 | 0.12 | 0.16 | 0.16 | 99 | 1011.8 |
| 20260507031037 | 62 | 282 | 3.0 | 3.0 | 0.07 | 0.15 | 0.15 | 99 | 1011.6 |
| 20260507030534 | 62 | 174 | 4.0 | 6.0 | 0.00 | 0.14 | 0.14 | 99 | 1011.6 |
| 20260507030032 | 62 | 270 | 4.0 | 4.0 | 0.00 | 0.14 | 0.14 | 99 | 1011.6 |
| 20260507025529 | 62 | 180 | 2.0 | 3.0 | 0.00 | 0.14 | 0.14 | 99 | 1011.4 |
| 20260507025026 | 62 | 356 | 0.0 | 0.0 | 0.00 | 0.14 | 0.14 | 99 | 1011.5 |
| 20260507024524 | 62 | 9 | 0.0 | 0.0 | 0.00 | 0.14 | 0.14 | 99 | 1011.3 |
| 20260507024020 | 62 | 9 | 0.0 | 0.0 | 0.00 | 0.14 | 0.14 | 99 | 1011.5 |
| 20260507023516 | 62 | 23 | 0.0 | 0.0 | 0.05 | 0.14 | 0.14 | 99 | 1011.6 |
| 20260507023014 | 62 | 97 | 2.0 | 3.0 | 0.05 | 0.14 | 0.14 | 99 | 1011.4 |
| 20260507022511 | 62 | 10 | 1.0 | 2.0 | 0.00 | 0.13 | 0.13 | 99 | 1011.1 |
| 20260507022006 | 63 | 201 | 1.0 | 1.0 | 0.31 | 0.13 | 0.13 | 99 | 1011.1 |
| 20260507021502 | 63 | 279 | 3.0 | 4.0 | 0.31 | 0.13 | 0.13 | 98 | 1011.1 |
| 20260507020959 | 64 | 169 | 5.0 | 7.0 | 0.00 | 0.08 | 0.08 | 93 | 1010.9 |
| 20260507020456 | 64 | 192 | 2.0 | 2.0 | 0.00 | 0.08 | 0.08 | 94 | 1010.9 |
| 20260507015953 | 64 | 216 | 3.0 | 4.0 | 0.00 | 0.08 | 0.08 | 95 | 1010.8 |
| 20260507015452 | 64 | 226 | 3.0 | 4.0 | 0.00 | 0.08 | 0.08 | 94 | 1010.7 |
| 20260507014948 | 64 | 129 | 2.0 | 3.0 | 0.00 | 0.08 | 0.08 | 94 | 1010.9 |
| 20260507014445 | 65 | 208 | 1.0 | 2.0 | 0.00 | 0.08 | 0.08 | 93 | 1010.7 |
| 20260507013941 | 65 | 202 | 2.0 | 4.0 | 0.00 | 0.08 | 0.08 | 92 | 1010.6 |
| 20260507013437 | 65 | 128 | 2.0 | 4.0 | 0.00 | 0.08 | 0.08 | 92 | 1010.3 |
| 20260507012935 | 65 | 223 | 0.0 | 1.0 | 0.00 | 0.08 | 0.08 | 93 | 1010.3 |
| 20260507012431 | 65 | 225 | 2.0 | 3.0 | 0.00 | 0.08 | 0.08 | 94 | 1010.3 |
| 20260507011928 | 65 | 235 | 2.0 | 2.0 | 0.00 | 0.08 | 0.08 | 94 | 1010.7 |
| 20260507011426 | 65 | 188 | 1.0 | 1.0 | 0.00 | 0.08 | 0.08 | 94 | 1010.7 |
| 20260507010925 | 66 | 233 | 1.0 | 2.0 | 0.00 | 0.08 | 0.08 | 94 | 1010.8 |
| 20260507010421 | 66 | 109 | 1.0 | 1.0 | 0.00 | 0.08 | 0.08 | 93 | 1010.7 |
| 20260507005918 | 66 | 156 | 1.0 | 1.0 | 0.00 | 0.08 | 0.08 | 92 | 1011.0 |
| 20260507005415 | 66 | 322 | 2.0 | 2.0 | 0.00 | 0.08 | 0.08 | 92 | 1010.7 |
| 20260507004912 | 67 | 184 | 2.0 | 3.0 | 0.00 | 0.08 | 0.08 | 91 | 1010.9 |
| 20260507004409 | 68 | 222 | 2.0 | 2.0 | 0.00 | 0.08 | 0.08 | 90 | 1010.6 |
| 20260507003906 | 68 | 192 | 1.0 | 2.0 | 0.00 | 0.08 | 0.08 | 88 | 1010.9 |
| 20260507003401 | 69 | 20 | 2.0 | 2.0 | 0.00 | 0.08 | 0.08 | 88 | 1010.8 |
| 20260507002857 | 69 | 300 | 0.0 | 0.0 | 0.00 | 0.08 | 0.08 | 87 | 1010.7 |
| 20260507002353 | 70 | 0 | 0.0 | 0.0 | 0.00 | 0.08 | 0.08 | 86 | 1010.6 |
| 20260507001850 | 70 | 6 | 0.0 | 0.0 | 0.00 | 0.08 | 0.08 | 85 | 1010.6 |
| 20260507001347 | 70 | 71 | 1.0 | 1.0 | 0.00 | 0.08 | 0.08 | 84 | 1010.5 |
| 20260507000843 | 71 | 89 | 1.0 | 2.0 | 0.00 | 0.08 | 0.08 | 83 | 1010.3 |
| 20260507000339 | 71 | 42 | 1.0 | 1.0 | 0.00 | 0.08 | 0.08 | 82 | 1010.0 |
| 20260506235836 | 71 | 55 | 2.0 | 2.0 | 0.00 | 0.08 | 0.08 | 81 | 1009.8 |
| 20260506235333 | 71 | 61 | 1.0 | 1.0 | 0.00 | 0.08 | 0.08 | 82 | 1009.8 |
| 20260506234828 | 71 | 5 | 1.0 | 1.0 | 0.00 | 0.08 | 0.08 | 82 | 1009.7 |
| 20260506234326 | 71 | 328 | 4.0 | 7.0 | 0.00 | 0.08 | 0.08 | 82 | 1009.8 |
| 20260506233824 | 71 | 0 | 5.0 | 7.0 | 0.00 | 0.08 | 0.08 | 81 | 1009.5 |
| 20260506233319 | 71 | 93 | 4.0 | 4.0 | 0.00 | 0.08 | 0.08 | 82 | 1009.6 |
| 20260506232817 | 71 | 346 | 3.0 | 4.0 | 0.00 | 0.08 | 0.08 | 81 | 1009.8 |
| 20260506232312 | 72 | 311 | 4.0 | 7.0 | 0.00 | 0.08 | 0.08 | 81 | 1009.8 |
| 20260506231809 | 72 | 355 | 2.0 | 3.0 | 0.00 | 0.08 | 0.08 | 81 | 1009.9 |
| 20260506231307 | 72 | 16 | 2.0 | 3.0 | 0.00 | 0.08 | 0.08 | 80 | 1009.8 |
| 20260506230804 | 73 | 350 | 2.0 | 3.0 | 0.00 | 0.08 | 0.08 | 79 | 1009.6 |
| 20260506230301 | 73 | 71 | 2.0 | 2.0 | 0.00 | 0.08 | 0.08 | 79 | 1009.6 |
| 20260506225757 | 73 | 9 | 2.0 | 2.0 | 0.00 | 0.08 | 0.08 | 79 | 1009.5 |
| 20260506225254 | 73 | 358 | 1.0 | 2.0 | 0.00 | 0.08 | 0.08 | 79 | 1009.4 |
| 20260506224750 | 73 | 347 | 4.0 | 6.0 | 0.00 | 0.08 | 0.08 | 78 | 1009.6 |
| 20260506224248 | 73 | 18 | 2.0 | 2.0 | 0.00 | 0.08 | 0.08 | 78 | 1009.2 |
| 20260506223744 | 73 | 65 | 1.0 | 2.0 | 0.00 | 0.08 | 0.08 | 78 | 1009.4 |
| 20260506223240 | 73 | 26 | 2.0 | 3.0 | 0.00 | 0.08 | 0.08 | 77 | 1009.5 |
| 20260506222737 | 73 | 12 | 2.0 | 3.0 | 0.00 | 0.08 | 0.08 | 77 | 1009.5 |
| 20260506222232 | 73 | 5 | 7.0 | 9.0 | 0.00 | 0.08 | 0.08 | 77 | 1009.1 |
| 20260506221731 | 73 | 56 | 2.0 | 2.0 | 0.00 | 0.08 | 0.08 | 77 | 1009.5 |
| 20260506221229 | 74 | 15 | 4.0 | 6.0 | 0.00 | 0.08 | 0.08 | 76 | 1009.4 |
| 20260506220725 | 74 | 59 | 5.0 | 6.0 | 0.00 | 0.08 | 0.08 | 76 | 1009.6 |
| 20260506220220 | 74 | 70 | 4.0 | 4.0 | 0.00 | 0.08 | 0.08 | 75 | 1009.2 |
| 20260506215717 | 74 | 330 | 4.0 | 6.0 | 0.00 | 0.08 | 0.08 | 75 | 1009.1 |
| 20260506215213 | 74 | 43 | 3.0 | 3.0 | 0.00 | 0.08 | 0.08 | 76 | 1009.1 |
| 20260506214709 | 74 | 342 | 4.0 | 7.0 | 0.00 | 0.08 | 0.08 | 76 | 1009.0 |
| 20260506214207 | 74 | 55 | 5.0 | 7.0 | 0.00 | 0.08 | 0.08 | 76 | 1009.4 |
| 20260506213705 | 74 | 310 | 5.0 | 7.0 | 0.00 | 0.08 | 0.08 | 75 | 1009.1 |
| 20260506213202 | 74 | 49 | 2.0 | 3.0 | 0.00 | 0.08 | 0.08 | 75 | 1009.0 |
| 20260506212659 | 74 | 354 | 3.0 | 4.0 | 0.00 | 0.08 | 0.08 | 76 | 1009.0 |
| 20260506212154 | 75 | 62 | 4.0 | 4.0 | 0.00 | 0.08 | 0.08 | 75 | 1008.9 |
| 20260506211650 | 75 | 332 | 2.0 | 3.0 | 0.00 | 0.08 | 0.08 | 75 | 1008.8 |